Wind_Speed
4 3 3 2 2 2 2 3 3 3 3 3 3 2 2 3 3 3 3 3 3 3 3 4 4 4 4 5 5 5 5 5 5 5 6 6 7 7 6 6 6 6 7 7 6 6 6 6 6
4 4 4 4 3 3 3 3 3 3 3 3 3 3 3 3 3 3 3 3 3 4 4 4 4 5 5 5 6 6 6 6 6 7 7 7 8 8 8 8 8 7 7 7 7 7 7 7 7
5 4 4 4 4 4 4 3 4 3 3 4 4 4 4 3 4 4 4 5 5 4 5 5 5 6 6 6 7 7 7 7 8 7 8 8 9 9 10 9 8 8 9 9 9 8 8 8 8
4 4 4 4 5 5 4 4 4 4 4 4 4 4 4 4 4 4 5 5 6 6 5 6 6 7 7 7 7 7 7 8 8 8 8 8 8 8 8 9 9 9 9 9 10 10 10 9 9
5 5 5 4 4 5 5 5 4 4 5 5 4 4 4 4 4 5 6 6 6 6 7 7 7 7 7 8 8 9 8 8 8 8 8 8 9 8 8 9 9 9 9 9 10 10 11 11 11
5 5 5 4 4 5 5 5 5 4 5 5 5 5 5 5 5 5 6 6 6 6 6 7 7 7 8 9 9 10 10 9 9 9 9 9 8 9 9 9 10 9 9 10 10 10 11 11 11
4 5 5 5 5 5 5 6 5 4 5 5 5 5 5 5 5 5 5 6 6 6 7 7 8 8 8 9 9 9 10 10 10 11 11 10 9 9 9 9 9 10 10 10 10 11 11 12 12
4 5 5 6 6 6 6 6 6 6 5 5 5 5 5 5 5 6 6 6 6 7 7 8 9 9 9 10 11 11 11 11 11 11 12 11 11 11 10 10 10 10 11 11 11 11 12 12 11
5 5 5 5 6 6 6 6 6 6 6 5 5 5 5 6 6 6 6 6 6 7 8 9 10 10 10 11 11 12 12 12 12 12 13 12 12 11 11 11 11 11 12 12 12 12 12 12 12
5 5 5 6 6 6 6 6 6 6 6 5 5 5 6 6 6 6 6 7 7 8 9 9 10 11 11 11 12 12 12 12 13 12 12 12 12 12 12 12 12 12 12 12 13 13 13 13 12
6 6 6 6 6 6 6 6 6 6 7 6 6 6 6 6 6 7 6 7 8 8 9 9 10 10 11 11 11 11 11 12 12 12 12 12 12 12 13 13 12 12 12 12 13 13 13 13 12
5 6 6 6 7 7 6 7 7 7 7 7 7 7 7 7 7 7 7 7 8 9 10 10 10 10 10 10 10 11 12 12 12 12 12 13 13 13 13 13 12 12 13 13 13 13 13 13 13
6 6 6 6 7 7 7 7 7 7 7 7 7 7 7 8 8 8 8 8 9 9 10 9 10 10 10 10 10 11 12 12 12 12 12 13 13 13 13 13 13 13 14 14 14 14 13 13 13
7 7 7 7 7 7 7 7 7 7 8 8 8 8 8 9 9 9 9 9 10 10 10 10 9 9 10 10 11 11 12 12 12 12 12 12 13 13 13 14 14 14 15 14 14 14 14 14 14
8 8 8 8 8 8 8 8 8 8 8 8 8 9 9 9 10 9 9 10 10 10 9 10 10 10 9 10 11 11 11 12 12 12 12 12 13 13 13 13 13 14 14 14 13 13 13 13 13
9 9 9 9 9 9 9 9 9 9 9 9 9 10 10 10 10 10 10 10 10 10 9 9 9 10 10 10 10 11 11 11 11 11 12 12 13 13 13 13 13 13 13 13 13 13 13 13 13
9 9 10 10 10 10 10 11 10 10 10 10 10 10 10 10 10 11 10 11 11 11 10 10 10 10 10 10 11 11 11 11 11 11 11 12 12 13 13 13 13 12 12 12 13 13 13 14 14
10 10 10 11 11 11 12 12 12 11 11 11 11 11 11 11 11 11 11 12 12 11 11 11 10 10 10 11 11 11 11 11 10 11 11 11 11 12 12 13 13 13 13 12 13 13 13 14 14
11 11 11 12 12 13 13 13 13 13 13 13 12 12 12 11 11 12 12 12 12 12 11 11 11 11 11 11 11 11 11 11 11 12 12 12 12 12 12 13 13 13 13 13 13 13 13 13 13
12 12 12 13 14 14 14 14 14 14 14 14 13 13 13 12 13 13 13 13 12 12 12 11 11 11 11 12 11 11 11 12 12 12 12 12 12 12 13 13 14 14 14 14 14 14 14 13 13
13 14 14 14 15 15 14 15 15 15 14 14 14 14 14 14 13 13 13 13 13 13 12 11 12 11 11 11 12 11 11 11 12 12 12 12 13 13 14 14 13 14 14 14 14 14 14 13 14
13 14 14 14 14 15 15 15 15 15 15 14 14 14 14 14 13 13 13 12 12 12 12 12 12 11 11 11 11 11 11 12 12 12 13 12 13 13 14 14 13 13 13 13 14 14 14 14 14
13 13 14 13 13 14 14 15 14 14 14 14 14 14 14 14 14 14 13 13 13 13 13 13 12 12 12 12 12 12 12 12 13 13 13 12 13 13 13 13 13 13 13 13 13 14 14 14 14
13 13 14 13 14 14 14 15 14 14 14 14 14 14 14 14 14 14 14 14 14 14 14 14 13 13 13 13 13 13 13 13 13 13 13 13 13 13 13 13 13 13 13 14 14 14 14 14 14
14 13 14 14 15 16 15 15 15 14 14 15 15 14 14 14 14 14 15 15 15 15 14 14 13 13 13 14 14 14 14 14 14 13 13 14 14 14 14 14 14 14 14 14 15 14 14 14 14
14 14 14 15 15 16 16 15 15 15 14 15 15 15 15 14 14 14 14 15 15 15 15 14 13 13 14 14 14 15 15 15 15 15 14 14 15 15 15 14 15 15 14 15 14 15 15 15 14
15 15 15 16 16 16 17 16 15 14 14 14 15 15 15 15 15 14 15 15 15 15 14 14 14 14 15 15 15 15 15 15 15 15 15 15 15 15 15 15 16 16 15 15 15 15 16 15 15
16 15 16 16 16 16 16 16 16 15 14 15 15 15 15 15 15 15 15 15 15 15 14 14 15 15 15 16 16 16 16 15 15 15 15 15 16 15 15 16 17 17 16 16 16 16 16 16 16
17 17 18 18 18 18 17 17 16 16 16 16 15 15 15 16 16 16 16 16 16 15 15 16 16 16 16 16 16 17 17 17 16 16 16 16 16 16 16 16 17 17 16 16 17 17 17 17 17
19 19 19 19 19 19 19 19 18 17 17 17 16 16 16 17 17 17 17 17 17 16 16 16 16 16 16 16 17 18 18 17 17 16 16 16 16 16 16 16 16 17 17 17 17 17 17 18 18
Wind_Direction
244 241 244 248 258 260 262 259 263 252 248 241 233 236 218 231 240 244 229 214 211 218 220 230 233 234 234 236 239 243 247 249 252 255 257 260 260 264 264 263 259 255 250 245 245 248 250 251 254
247 243 246 247 252 260 259 257 254 254 252 248 243 241 240 248 248 248 234 233 232 239 241 241 239 243 247 249 252 255 257 261 262 260 260 263 262 263 263 263 260 257 253 251 249 249 252 257 258
246 242 242 241 240 249 256 257 255 251 253 250 248 244 253 263 258 253 247 251 253 254 254 253 252 254 255 254 257 261 266 267 267 266 266 265 263 263 264 262 259 258 255 251 250 253 258 261 261
239 239 245 241 237 240 250 252 253 253 256 258 253 247 254 261 261 256 256 260 258 256 257 257 265 266 260 259 259 263 264 267 268 265 267 267 267 268 266 262 260 260 258 255 253 255 257 260 261
239 244 244 236 236 244 250 251 253 256 261 266 263 259 257 256 259 261 263 261 255 258 263 264 266 262 261 261 262 263 263 265 266 264 265 265 265 269 269 265 261 260 259 259 257 257 258 259 260
238 242 239 237 240 243 247 249 252 257 266 266 263 258 254 260 266 269 270 267 260 263 265 269 267 263 264 264 266 266 265 268 268 268 267 266 267 271 270 266 262 262 262 262 261 259 259 259 260
235 239 237 242 239 240 242 247 249 255 262 266 263 259 257 262 268 273 275 273 270 267 267 270 271 269 267 268 269 268 267 269 272 270 271 273 271 270 270 267 264 263 263 262 262 261 261 261 261
234 243 241 240 239 239 243 248 253 251 257 263 265 265 261 264 268 274 280 278 275 272 271 272 271 271 270 269 270 273 275 276 275 273 273 275 273 270 269 268 268 263 261 261 263 263 261 262 263
241 244 245 241 242 241 246 248 254 256 259 260 265 265 267 270 271 274 276 278 277 275 273 270 268 271 273 273 274 275 275 276 276 274 274 276 274 272 271 270 269 267 264 262 263 263 262 261 261
247 247 250 251 254 250 251 252 259 260 258 259 264 264 265 266 271 273 274 281 280 277 274 270 270 273 276 277 276 276 275 276 276 276 276 277 276 274 273 272 270 267 266 266 265 265 263 262 261
255 251 251 255 256 253 249 253 257 261 265 263 265 265 261 261 269 275 280 282 280 277 272 272 274 276 276 275 276 276 277 278 277 276 276 276 277 276 272 272 271 266 266 266 266 267 265 263 261
252 251 253 255 257 258 255 256 258 260 265 267 264 263 262 264 271 274 279 285 284 281 276 273 274 275 274 271 274 275 276 278 279 278 276 278 279 280 275 270 269 268 268 269 270 269 265 263 261
251 252 257 260 260 259 256 256 258 258 263 266 265 266 271 268 272 274 275 281 286 284 278 275 274 274 274 272 273 275 277 278 278 277 275 277 278 279 277 273 268 269 270 271 269 269 264 263 262
256 258 261 261 260 260 262 262 262 261 263 264 265 269 271 271 270 272 275 279 282 281 276 272 272 274 275 276 276 276 277 277 277 276 277 279 281 280 279 278 271 267 267 267 269 267 266 263 262
260 261 261 259 261 263 265 264 264 263 262 265 264 267 270 272 270 270 274 279 281 279 276 276 276 276 278 280 282 282 281 281 280 280 281 282 281 280 279 277 275 267 263 263 265 266 266 265 261
259 260 260 262 264 265 264 264 266 266 264 265 267 269 274 276 278 279 279 278 281 279 277 278 278 277 278 281 283 284 283 282 282 283 283 283 282 281 279 276 272 270 268 263 262 263 266 268 267
261 260 259 263 265 263 262 261 263 263 266 268 269 271 274 277 280 281 280 280 281 280 279 280 280 278 279 282 282 282 282 283 283 283 286 286 283 281 280 275 272 270 267 265 262 265 268 268 268
261 261 261 264 266 263 262 261 261 264 265 267 269 270 272 275 278 280 280 280 278 276 277 278 277 277 278 282 284 282 283 286 287 285 285 286 286 284 281 277 273 268 267 267 268 270 269 268 267
257 258 259 262 264 263 263 263 263 263 264 266 266 266 269 272 274 276 277 277 275 274 275 275 275 276 279 284 285 283 283 283 284 286 285 285 283 283 282 279 274 271 270 267 267 270 268 267 267
259 260 261 264 265 264 263 263 263 264 265 266 266 267 268 270 272 273 276 275 272 277 279 276 280 279 281 284 283 282 281 282 284 286 286 285 282 280 282 281 278 273 270 267 267 267 268 269 269
261 261 261 264 267 264 262 261 262 263 264 264 265 265 266 269 269 270 275 277 274 277 283 281 282 281 283 283 281 282 282 282 285 286 286 285 283 282 282 283 278 275 270 266 266 267 266 265 266
260 262 261 263 264 264 264 264 262 263 263 263 264 266 266 268 268 272 274 275 276 278 280 280 281 280 280 281 279 281 282 283 284 285 284 285 284 283 282 281 280 277 271 266 265 267 268 267 267
260 260 259 260 260 262 264 265 262 261 261 262 263 264 267 268 270 273 273 274 275 276 277 277 280 280 277 278 278 277 279 282 284 285 284 285 284 284 283 280 278 277 271 268 267 267 268 267 266
258 258 259 260 260 261 264 266 262 261 261 261 262 265 267 267 268 274 276 275 275 275 275 277 280 280 279 280 277 277 280 282 284 285 285 284 284 285 283 281 281 278 273 268 267 266 265 266 267
256 256 259 260 261 264 266 266 264 261 259 260 262 264 267 268 269 274 278 275 273 275 276 277 277 278 279 281 278 276 280 281 283 285 286 284 284 285 286 284 284 281 274 270 268 265 265 266 268
256 256 256 259 263 266 266 267 266 262 259 258 260 262 266 267 268 271 275 275 273 276 277 275 274 277 279 280 279 276 278 280 280 283 285 284 284 285 286 284 285 282 277 273 270 266 266 267 268
253 252 254 258 263 264 265 264 262 262 262 262 262 262 264 265 267 269 272 273 272 274 274 275 274 276 278 280 280 279 280 281 280 282 285 285 284 285 285 281 282 281 278 275 273 269 267 268 271
251 253 255 257 262 264 266 266 265 264 264 264 263 264 265 266 270 271 272 271 271 271 272 276 277 278 278 279 280 280 282 282 283 283 283 283 283 283 285 282 280 280 278 276 275 271 268 267 270
252 252 254 258 260 262 266 268 267 265 263 262 261 262 263 265 268 271 271 271 270 270 273 278 280 279 278 279 279 278 281 283 283 283 283 283 283 283 283 284 281 280 278 277 275 272 268 266 268
255 255 256 258 261 262 264 265 267 266 264 261 260 260 262 264 266 268 271 272 271 271 273 277 279 279 280 280 280 279 280 280 282 282 282 283 284 284 283 283 282 280 278 276 275 273 269 266 267
Height
5880 5880 5881 5881 5882 5882 5881 5882 5881 5881 5881 5880 5880 5880 5880 5880 5881 5883 5880 5878 5878 5878 5877 5877 5877 5877 5877 5877 5877 5877 5877 5877 5876 5876 5876 5876 5875 5875 5875 5875 5875 5875 5874 5874 5874 5874 5874 5874 5875
5878 5879 5880 5881 5881 5881 5881 5880 5880 5880 5880 5879 5879 5879 5879 5879 5879 5878 5878 5877 5877 5877 5877 5876 5876 5876 5876 5876 5876 5876 5876 5875 5875 5875 5875 5874 5874 5874 5874 5873 5873 5873 5873 5873 5873 5873 5873 5873 5873
5877 5878 5879 5879 5879 5880 5880 5879 5879 5879 5878 5878 5878 5878 5878 5878 5877 5877 5877 5876 5876 5876 5876 5875 5875 5875 5875 5875 5875 5875 5874 5874 5874 5873 5873 5873 5872 5872 5872 5871 5871 5871 5871 5871 5871 5871 5871 5871 5871
5876 5877 5878 5878 5878 5878 5878 5878 5878 5878 5878 5877 5877 5877 5877 5877 5876 5876 5875 5875 5875 5875 5874 5874 5874 5874 5874 5874 5873 5873 5873 5873 5872 5872 5871 5871 5871 5870 5870 5870 5870 5869 5869 5869 5869 5869 5869 5869 5869
5875 5876 5877 5876 5877 5877 5877 5877 5877 5877 5877 5876 5876 5876 5876 5875 5875 5875 5874 5874 5873 5873 5873 5873 5873 5873 5872 5872 5872 5872 5871 5871 5871 5870 5870 5869 5869 5869 5868 5868 5868 5868 5867 5867 5867 5867 5867 5867 5867
5874 5875 5876 5875 5875 5876 5875 5875 5875 5875 5875 5875 5875 5875 5874 5874 5874 5873 5873 5872 5872 5872 5872 5872 5871 5871 5871 5870 5870 5870 5870 5869 5869 5868 5868 5867 5867 5867 5866 5866 5866 5866 5866 5865 5865 5865 5865 5865 5865
5873 5873 5873 5874 5874 5874 5874 5874 5874 5874 5874 5874 5874 5873 5873 5873 5873 5872 5871 5871 5871 5870 5870 5870 5870 5869 5869 5869 5868 5868 5868 5867 5867 5867 5866 5865 5865 5865 5864 5864 5864 5864 5863 5863 5863 5863 5863 5863 5862
5871 5873 5872 5872 5873 5873 5873 5873 5873 5873 5873 5873 5872 5872 5872 5872 5871 5871 5870 5869 5869 5869 5868 5868 5868 5867 5867 5867 5866 5866 5866 5865 5865 5864 5864 5863 5863 5862 5862 5862 5862 5861 5861 5861 5861 5861 5860 5860 5860
5870 5872 5871 5871 5871 5871 5871 5871 5871 5871 5871 5871 5871 5871 5870 5870 5869 5869 5868 5868 5867 5867 5867 5866 5866 5866 5865 5865 5864 5864 5864 5863 5863 5862 5862 5861 5861 5860 5860 5860 5859 5859 5859 5858 5858 5858 5858 5858 5857
5869 5869 5869 5869 5869 5870 5869 5870 5870 5870 5870 5869 5869 5869 5868 5868 5868 5867 5867 5866 5866 5865 5865 5864 5864 5864 5863 5862 5862 5862 5861 5861 5860 5859 5859 5858 5858 5857 5857 5857 5857 5856 5856 5856 5856 5855 5855 5855 5855
5867 5867 5867 5867 5868 5868 5868 5868 5868 5868 5868 5868 5868 5867 5867 5866 5866 5866 5865 5865 5864 5864 5863 5862 5862 5861 5861 5860 5860 5859 5859 5858 5858 5857 5856 5856 5855 5855 5854 5854 5854 5854 5853 5853 5853 5852 5852 5852 5852
5865 5865 5865 5866 5866 5866 5866 5866 5867 5866 5867 5866 5866 5865 5865 5865 5864 5864 5863 5863 5862 5861 5861 5860 5859 5859 5858 5858 5857 5857 5856 5856 5855 5854 5854 5854 5853 5852 5852 5852 5851 5851 5850 5850 5850 5849 5849 5849 5849
5863 5863 5863 5864 5864 5864 5864 5865 5865 5865 5864 5864 5864 5863 5863 5863 5863 5862 5862 5861 5860 5859 5859 5858 5857 5856 5856 5855 5855 5854 5854 5853 5853 5852 5851 5851 5850 5850 5849 5849 5848 5848 5847 5847 5847 5846 5846 5846 5845
5862 5862 5862 5862 5862 5862 5863 5863 5863 5863 5862 5862 5862 5862 5861 5861 5860 5860 5859 5859 5858 5857 5856 5855 5855 5854 5854 5853 5853 5852 5851 5851 5850 5849 5849 5848 5847 5847 5846 5846 5845 5845 5844 5844 5843 5843 5843 5843 5842
5859 5860 5860 5860 5860 5860 5861 5861 5861 5860 5860 5860 5860 5860 5859 5859 5858 5858 5857 5856 5855 5854 5854 5853 5852 5852 5851 5851 5850 5850 5849 5848 5848 5847 5846 5845 5845 5844 5843 5842 5842 5841 5841 5840 5840 5840 5839 5839 5839
5857 5858 5858 5858 5858 5858 5860 5859 5859 5858 5858 5858 5858 5857 5857 5857 5856 5856 5855 5854 5853 5852 5851 5851 5850 5849 5849 5848 5848 5847 5846 5846 5845 5844 5843 5842 5842 5841 5840 5839 5839 5838 5838 5837 5837 5837 5836 5836 5836
5855 5855 5856 5856 5856 5856 5857 5857 5856 5856 5856 5856 5855 5855 5855 5854 5854 5853 5853 5852 5851 5850 5849 5849 5848 5847 5846 5846 5845 5844 5843 5843 5842 5841 5840 5839 5838 5838 5837 5836 5836 5835 5835 5835 5834 5833 5833 5833 5833
5853 5853 5853 5853 5853 5853 5854 5854 5854 5854 5854 5853 5853 5853 5853 5852 5852 5851 5850 5849 5849 5848 5847 5846 5846 5845 5844 5843 5842 5841 5841 5840 5839 5838 5837 5836 5835 5835 5834 5833 5832 5832 5832 5831 5831 5830 5830 5830 5830
5850 5850 5850 5850 5850 5851 5850 5851 5851 5851 5851 5851 5851 5851 5850 5850 5849 5849 5848 5847 5846 5845 5844 5844 5843 5842 5841 5840 5839 5839 5838 5837 5836 5835 5834 5833 5832 5832 5831 5830 5829 5828 5828 5828 5827 5827 5827 5826 5826
5846 5847 5847 5847 5847 5847 5847 5847 5847 5847 5848 5848 5848 5848 5847 5847 5847 5846 5845 5844 5843 5842 5842 5841 5840 5839 5838 5837 5837 5836 5835 5834 5833 5832 5831 5830 5829 5828 5827 5826 5825 5825 5824 5824 5824 5824 5823 5823 5823
5843 5843 5844 5844 5843 5843 5844 5844 5844 5844 5844 5844 5844 5844 5844 5844 5843 5843 5842 5841 5840 5839 5839 5838 5837 5836 5836 5835 5834 5833 5832 5831 5830 5829 5828 5827 5826 5825 5824 5823 5821 5820 5820 5820 5820 5820 5819 5819 5819
5839 5840 5840 5840 5840 5840 5841 5841 5841 5840 5841 5841 5841 5841 5841 5840 5840 5839 5839 5838 5837 5836 5836 5835 5834 5833 5832 5832 5831 5830 5829 5828 5827 5826 5825 5823 5822 5821 5820 5819 5818 5817 5816 5816 5816 5816 5815 5815 5815
5835 5836 5836 5836 5836 5837 5837 5837 5838 5837 5837 5837 5837 5837 5837 5837 5836 5836 5835 5835 5834 5833 5832 5832 5831 5830 5829 5828 5828 5827 5826 5825 5824 5823 5821 5820 5819 5817 5816 5815 5814 5813 5812 5812 5812 5812 5812 5811 5811
5831 5832 5832 5832 5832 5833 5833 5833 5834 5833 5834 5833 5833 5833 5833 5833 5833 5832 5832 5831 5830 5829 5829 5828 5827 5827 5826 5825 5824 5823 5822 5821 5820 5819 5818 5817 5815 5814 5813 5811 5810 5809 5809 5808 5808 5808 5808 5807 5807
5827 5828 5829 5829 5829 5829 5829 5829 5830 5830 5830 5829 5829 5829 5829 5829 5829 5828 5828 5827 5826 5825 5825 5824 5824 5823 5822 5821 5820 5820 5819 5818 5817 5816 5814 5813 5812 5810 5809 5808 5807 5806 5805 5804 5804 5804 5803 5803 5803
5823 5824 5826 5826 5826 5825 5825 5825 5826 5825 5825 5825 5825 5825 5825 5825 5825 5824 5824 5823 5822 5822 5821 5820 5820 5820 5819 5818 5817 5816 5815 5814 5813 5812 5810 5809 5808 5807 5805 5804 5803 5802 5801 5800 5799 5799 5799 5799 5798
5818 5818 5820 5821 5820 5821 5820 5821 5821 5821 5821 5821 5821 5821 5821 5821 5820 5820 5819 5819 5818 5818 5817 5816 5816 5815 5815 5814 5813 5812 5811 5810 5809 5807 5806 5805 5804 5803 5801 5800 5799 5798 5797 5796 5795 5795 5794 5794 5794
5813 5814 5815 5815 5815 5816 5816 5816 5817 5817 5817 5817 5817 5817 5817 5817 5816 5816 5815 5815 5814 5814 5813 5812 5812 5811 5811 5810 5809 5808 5807 5805 5804 5803 5802 5801 5800 5799 5797 5796 5794 5793 5792 5791 5791 5790 5790 5790 5789
5808 5809 5809 5810 5811 5811 5812 5814 5812 5812 5812 5812 5812 5812 5812 5812 5812 5811 5811 5811 5810 5809 5809 5808 5808 5807 5806 5805 5804 5803 5802 5801 5800 5799 5798 5796 5795 5794 5793 5791 5790 5789 5787 5787 5786 5785 5785 5785 5784
5802 5803 5804 5805 5805 5806 5806 5810 5806 5807 5807 5807 5808 5808 5807 5807 5807 5807 5807 5806 5805 5805 5805 5804 5803 5802 5802 5801 5799 5799 5798 5797 5795 5794 5793 5792 5791 5789 5788 5787 5785 5784 5783 5782 5781 5780 5780 5779 5779